SP5AP-3 Weather Reports


Display with metric or nautical units.
time (UTC)temp
F
wind
direction
speed
MPH
gust
MPH
rain 1hr
in
rain 24hr
in
rain mn
in
humidity
%
barometer
mb
20260508185939 50 5 0.0 1.0 0.00 0.00 0.00 8 1018.3
20260508185439 50 0 0.0 0.0 0.00 0.00 0.00 8 1018.3
20260508184939 50 334 0.0 1.0 0.00 0.00 0.00 8 1018.3
20260508184438 50 0 0.0 0.0 0.00 0.00 0.00 8 1018.0
20260508183938 50 0 0.0 0.0 0.00 0.00 0.00 8 1018.2
20260508183438 50 0 0.0 0.0 0.00 0.00 0.00 8 1018.1
20260508182937 50 0 0.0 0.0 0.00 0.00 0.00 8 1018.2
20260508182437 50 0 0.0 0.0 0.00 0.00 0.00 8 1018.2
20260508181937 50 2 0.0 1.0 0.00 0.00 0.00 8 1017.9
20260508181436 50 0 0.0 0.0 0.00 0.00 0.00 8 1017.9
20260508180936 50 0 0.0 0.0 0.00 0.00 0.00 8 1017.9
20260508180436 50 0 0.0 0.0 0.00 0.00 0.00 8 1018.0
20260508175935 50 0 0.0 0.0 0.00 0.00 0.00 8 1018.0
20260508175435 50 0 0.0 0.0 0.00 0.00 0.00 8 1018.0
20260508174935 50 27 0.0 1.0 0.00 0.00 0.00 8 1018.2
20260508174434 50 0 0.0 0.0 0.00 0.00 0.00 8 1017.9
20260508173934 50 12 0.0 1.0 0.00 0.00 0.00 8 1018.0
20260508173434 50 0 0.0 0.0 0.00 0.00 0.00 8 1017.6
20260508172933 50 0 0.0 0.0 0.00 0.00 0.00 8 1017.9
20260508172433 50 0 0.0 0.0 0.00 0.00 0.00 8 1017.6
20260508171933 50 260 1.0 2.0 0.00 0.00 0.00 8 1017.7
20260508171432 50 0 0.0 0.0 0.00 0.00 0.00 8 1017.6
20260508170932 50 0 0.0 0.0 0.00 0.00 0.00 8 1017.5
20260508170431 50 278 1.0 1.0 0.00 0.00 0.00 8 1017.7
20260508165931 50 0 0.0 0.0 0.00 0.00 0.00 8 1017.6
20260508165431 50 0 0.0 0.0 0.00 0.00 0.00 8 1017.5
20260508164931 50 0 0.0 0.0 0.00 0.00 0.00 8 1017.7
20260508164430 50 0 0.0 0.0 0.00 0.00 0.00 8 1017.6
20260508163930 51 48 1.0 2.0 0.00 0.00 0.00 8 1017.7
20260508163430 51 5 0.0 1.0 0.00 0.00 0.00 8 1017.5
20260508162929 51 0 0.0 0.0 0.00 0.00 0.00 8 1017.5
20260508162429 51 0 0.0 0.0 0.00 0.00 0.00 8 1017.5
20260508161929 51 0 0.0 0.0 0.00 0.00 0.00 8 1017.3
20260508161428 51 0 0.0 0.0 0.00 0.00 0.00 8 1017.6
20260508160928 52 313 0.0 1.0 0.00 0.00 0.00 8 1017.5
20260508160428 52 265 1.0 2.0 0.00 0.00 0.00 8 1017.2
20260508155927 52 0 0.0 0.0 0.00 0.00 0.00 8 1017.4
20260508155427 52 0 0.0 0.0 0.00 0.00 0.00 8 1017.4
20260508154926 52 0 0.0 0.0 0.00 0.00 0.00 8 1017.3
20260508154426 52 0 0.0 0.0 0.00 0.00 0.00 8 1017.3
20260508153926 52 0 0.0 0.0 0.00 0.00 0.00 8 1017.2
20260508153426 52 0 0.0 0.0 0.00 0.00 0.00 8 1017.2
20260508152925 52 0 0.0 0.0 0.00 0.00 0.00 8 1017.3
20260508152425 52 298 1.0 1.0 0.00 0.00 0.00 8 1017.3
20260508151924 52 0 0.0 0.0 0.00 0.00 0.00 8 1017.2
20260508151424 52 0 0.0 0.0 0.00 0.00 0.00 8 1017.2
20260508150924 52 0 0.0 0.0 0.00 0.00 0.00 8 1017.2
20260508150423 52 0 0.0 0.0 0.00 0.00 0.00 8 1017.3
20260508145923 52 0 0.0 0.0 0.00 0.00 0.00 8 1017.3
20260508145423 52 337 0.0 1.0 0.00 0.00 0.00 8 1017.3
20260508144923 52 0 0.0 0.0 0.00 0.00 0.00 8 1017.2
20260508144422 53 80 0.0 1.0 0.00 0.00 0.00 8 1017.2
20260508143922 53 298 0.0 1.0 0.00 0.00 0.00 7 1017.1
20260508143421 53 0 0.0 0.0 0.00 0.00 0.00 7 1017.3
20260508142921 53 0 0.0 0.0 0.00 0.00 0.00 7 1017.4
20260508142421 53 352 0.0 1.0 0.00 0.00 0.00 7 1017.1
20260508141920 53 292 1.0 1.0 0.00 0.00 0.00 7 1017.3
20260508141420 53 0 0.0 0.0 0.00 0.00 0.00 7 1017.2
20260508140920 53 0 0.0 0.0 0.00 0.00 0.00 7 1017.1
20260508140419 53 0 0.0 0.0 0.00 0.00 0.00 7 1017.2
20260508135919 54 355 0.0 1.0 0.00 0.00 0.00 7 1017.2
20260508135419 54 0 0.0 0.0 0.00 0.00 0.00 7 1017.1
20260508134919 54 0 0.0 0.0 0.00 0.00 0.00 7 1017.2
20260508134418 54 0 0.0 0.0 0.00 0.00 0.00 7 1017.1
20260508133918 54 0 0.0 0.0 0.00 0.00 0.00 7 1017.1
20260508133417 54 0 0.0 0.0 0.00 0.00 0.00 7 1017.0
20260508132917 54 328 1.0 2.0 0.00 0.00 0.00 7 1017.1
20260508132417 54 329 1.0 1.0 0.00 0.00 0.00 7 1016.9
20260508131916 54 0 0.0 0.0 0.00 0.00 0.00 7 1017.1
20260508131416 54 0 0.0 0.0 0.00 0.00 0.00 7 1017.1
20260508130916 53 319 0.0 1.0 0.00 0.00 0.00 7 1017.2
20260508130416 54 5 0.0 1.0 0.00 0.00 0.00 7 1017.3
20260508125915 54 339 0.0 1.0 0.00 0.00 0.00 7 1017.2
20260508125415 54 0 0.0 0.0 0.00 0.00 0.00 7 1017.2
20260508124915 54 333 0.0 1.0 0.00 0.00 0.00 7 1017.4
20260508124414 54 0 0.0 0.0 0.00 0.00 0.00 7 1017.1
20260508123914 53 0 0.0 0.0 0.00 0.00 0.00 7 1017.4
20260508123413 53 266 1.0 2.0 0.00 0.00 0.00 7 1017.1
20260508122913 53 359 0.0 1.0 0.00 0.00 0.00 7 1017.3
20260508122413 53 0 0.0 0.0 0.00 0.00 0.00 7 1017.2
20260508121913 53 335 0.0 1.0 0.00 0.00 0.00 7 1017.1
20260508121412 53 0 0.0 0.0 0.00 0.00 0.00 7 1017.2
20260508120912 53 0 0.0 0.0 0.00 0.00 0.00 7 1017.2
20260508120411 53 0 0.0 0.0 0.00 0.00 0.00 7 1017.2
20260508115911 53 0 0.0 0.0 0.00 0.00 0.00 7 1017.1
20260508115411 53 0 0.0 0.0 0.00 0.00 0.00 7 1017.1
20260508114910 53 0 0.0 0.0 0.00 0.00 0.00 7 1017.0
20260508114410 53 0 0.0 0.0 0.00 0.00 0.00 7 1016.9
20260508113910 53 0 0.0 0.0 0.00 0.00 0.00 7 1016.9
20260508113410 53 0 0.0 0.0 0.00 0.00 0.00 7 1016.9
20260508112909 53 0 0.0 0.0 0.00 0.00 0.00 7 1016.9
20260508112409 53 33 0.0 1.0 0.00 0.00 0.00 7 1017.0
20260508111908 53 0 0.0 0.0 0.00 0.00 0.00 7 1016.9
20260508111408 53 198 0.0 1.0 0.00 0.00 0.00 7 1016.6
20260508110908 54 0 0.0 0.0 0.00 0.00 0.00 7 1017.1
20260508110408 54 349 1.0 2.0 0.00 0.00 0.00 7 1016.6
20260508105907 54 30 0.0 1.0 0.00 0.00 0.00 7 1016.5
20260508105407 54 0 0.0 0.0 0.00 0.00 0.00 7 1016.7
20260508104907 54 0 0.0 0.0 0.00 0.00 0.00 7 1016.8
20260508104406 54 0 0.0 0.0 0.00 0.00 0.00 7 1016.7
20260508103906 53 0 0.0 0.0 0.00 0.00 0.00 7 1016.7
20260508103406 53 0 0.0 0.0 0.00 0.00 0.00 7 1016.7
20260508102905 53 305 1.0 1.0 0.00 0.00 0.00 7 1016.8
20260508102405 54 0 0.0 0.0 0.00 0.00 0.00 7 1016.5
20260508101905 54 0 0.0 0.0 0.00 0.00 0.00 7 1016.7
20260508101404 54 0 0.0 0.0 0.00 0.00 0.00 7 1016.8
20260508100904 54 357 0.0 1.0 0.00 0.00 0.00 7 1016.7
20260508100404 54 0 0.0 0.0 0.00 0.00 0.00 7 1016.7
20260508095903 54 0 0.0 0.0 0.00 0.00 0.00 8 1016.8
20260508095403 53 26 0.0 1.0 0.00 0.00 0.00 8 1017.0
20260508094903 53 0 0.0 0.0 0.00 0.00 0.00 8 1016.6
20260508094402 52 0 0.0 0.0 0.00 0.00 0.00 8 1016.9
20260508093902 52 0 0.0 0.0 0.00 0.00 0.00 8 1016.9
20260508093402 52 348 0.0 1.0 0.00 0.00 0.00 8 1016.9
20260508092901 51 0 0.0 0.0 0.00 0.00 0.00 8 1016.7
20260508092401 51 0 0.0 0.0 0.00 0.00 0.00 8 1016.8
20260508091901 51 0 0.0 0.0 0.00 0.00 0.00 8 1016.7
20260508091400 52 0 0.0 0.0 0.00 0.00 0.00 8 1016.6
20260508090900 51 0 0.0 0.0 0.00 0.00 0.00 8 1016.7
20260508090400 51 0 0.0 0.0 0.00 0.00 0.00 9 1016.4
20260508085859 51 0 0.0 0.0 0.00 0.00 0.00 9 1016.9
20260508085359 50 0 0.0 0.0 0.00 0.00 0.00 9 1016.7
20260508084859 50 0 0.0 0.0 0.00 0.00 0.00 9 1016.7
20260508084358 49 0 0.0 0.0 0.00 0.00 0.00 9 1016.6
20260508083858 50 0 0.0 0.0 0.00 0.00 0.00 9 1016.9
20260508083358 50 0 0.0 0.0 0.00 0.00 0.00 9 1017.0
20260508082857 49 0 0.0 0.0 0.00 0.00 0.00 9 1016.7
20260508082357 49 0 0.0 0.0 0.00 0.00 0.00 9 1016.7
20260508081857 49 0 0.0 0.0 0.00 0.00 0.00 9 1016.6
20260508081356 49 0 0.0 0.0 0.00 0.00 0.00 9 1016.6
20260508080856 49 0 0.0 0.0 0.00 0.00 0.00 9 1016.6
20260508080356 49 0 0.0 0.0 0.00 0.00 0.00 9 1016.6
20260508075855 49 0 0.0 0.0 0.00 0.00 0.00 9 1016.8
20260508075355 49 0 0.0 0.0 0.00 0.00 0.00 9 1016.3
20260508074855 49 0 0.0 0.0 0.00 0.00 0.00 9 1016.7
20260508074354 49 0 0.0 0.0 0.00 0.00 0.00 9 1016.4
20260508073854 49 0 0.0 0.0 0.00 0.00 0.00 9 1016.5
20260508073354 49 325 0.0 1.0 0.00 0.00 0.00 9 1016.4
20260508072853 49 0 0.0 0.0 0.00 0.00 0.00 9 1016.3
20260508072353 49 341 0.0 1.0 0.00 0.00 0.00 9 1016.3
20260508071853 49 346 0.0 1.0 0.00 0.00 0.00 9 1016.4
20260508071352 49 0 0.0 0.0 0.00 0.00 0.00 9 1016.3
20260508070852 49 0 0.0 0.0 0.00 0.00 0.00 9 1016.2
20260508070352 49 0 0.0 0.0 0.00 0.00 0.00 9 1016.3
20260508065851 49 0 0.0 0.0 0.00 0.00 0.00 9 1015.9
20260508065351 50 0 0.0 0.0 0.00 0.00 0.00 9 1015.8
20260508064851 49 0 0.0 0.0 0.00 0.00 0.00 8 1016.0
20260508064350 49 323 0.0 1.0 0.00 0.00 0.00 8 1016.1
20260508063850 49 0 0.0 0.0 0.00 0.00 0.00 8 1015.9
20260508063350 50 0 0.0 0.0 0.00 0.00 0.00 8 1015.9
20260508062849 50 0 0.0 0.0 0.00 0.00 0.00 8 1015.9
20260508062349 50 0 0.0 0.0 0.00 0.00 0.00 8 1015.7
20260508061849 50 2 0.0 1.0 0.00 0.00 0.00 8 1015.8
20260508061348 50 0 0.0 0.0 0.00 0.00 0.00 8 1015.7
20260508060848 49 0 0.0 0.0 0.00 0.00 0.00 8 1016.0
20260508060348 50 0 0.0 0.0 0.00 0.00 0.00 8 1015.9
20260508055847 50 358 0.0 1.0 0.00 0.00 0.00 8 1015.7
20260508055347 50 0 0.0 0.0 0.00 0.00 0.00 8 1015.8
20260508054847 50 0 0.0 0.0 0.00 0.00 0.00 8 1015.7
20260508054346 50 351 0.0 1.0 0.00 0.00 0.00 8 1015.6
20260508053846 50 0 0.0 0.0 0.00 0.00 0.00 8 1015.7
20260508053346 50 0 0.0 0.0 0.00 0.00 0.00 8 1015.5
20260508052845 50 344 0.0 1.0 0.00 0.00 0.00 8 1015.5
20260508052345 49 56 0.0 1.0 0.00 0.00 0.00 8 1015.4
20260508051845 50 335 0.0 1.0 0.00 0.00 0.00 8 1015.3
20260508051344 50 0 0.0 0.0 0.00 0.00 0.00 8 1015.6
20260508050844 50 0 0.0 0.0 0.00 0.00 0.00 8 1015.3
20260508050344 49 0 0.0 0.0 0.00 0.00 0.00 8 1015.3
20260508045843 50 0 0.0 0.0 0.00 0.00 0.00 8 1015.5
20260508045343 49 0 0.0 0.0 0.00 0.00 0.00 8 1015.5
20260508044843 50 332 0.0 1.0 0.00 0.00 0.00 8 1015.4
20260508044342 50 0 0.0 0.0 0.00 0.00 0.00 8 1015.3
20260508043842 50 0 0.0 0.0 0.00 0.00 0.00 8 1015.5
20260508043342 49 0 0.0 0.0 0.00 0.00 0.00 8 1015.4
20260508042841 49 353 0.0 1.0 0.00 0.00 0.00 8 1015.1
20260508042341 49 0 0.0 0.0 0.00 0.00 0.00 8 1015.3
20260508041841 49 0 0.0 1.0 0.00 0.00 0.00 8 1015.2
20260508041340 49 339 0.0 1.0 0.00 0.00 0.00 8 1015.2
20260508040840 49 0 0.0 0.0 0.00 0.00 0.00 8 1015.2
20260508040340 49 0 0.0 0.0 0.00 0.00 0.00 8 1015.2
20260508035839 49 0 0.0 0.0 0.00 0.00 0.00 8 1015.2
20260508035339 50 0 0.0 0.0 0.00 0.00 0.00 8 1015.2
20260508034839 49 0 0.0 0.0 0.00 0.00 0.00 8 1015.2
20260508034338 49 0 0.0 0.0 0.00 0.00 0.00 8 1015.2
20260508033838 49 0 0.0 0.0 0.00 0.00 0.00 8 1015.1
20260508033338 49 0 0.0 0.0 0.00 0.00 0.00 8 1015.3
20260508032837 49 0 0.0 0.0 0.00 0.00 0.00 8 1015.3
20260508032337 49 353 0.0 1.0 0.00 0.00 0.00 8 1015.2
20260508031837 50 1 0.0 1.0 0.00 0.00 0.00 8 1015.2
20260508031336 50 0 0.0 0.0 0.00 0.00 0.00 8 1015.2
20260508030836 50 0 0.0 0.0 0.00 0.00 0.00 8 1015.2
20260508030336 50 334 0.0 1.0 0.00 0.00 0.00 8 1015.2
20260508025835 50 13 0.0 1.0 0.00 0.00 0.00 8 1015.3
20260508025335 50 0 0.0 0.0 0.00 0.00 0.00 8 1015.0
20260508024835 50 0 0.0 0.0 0.00 0.00 0.00 8 1014.9
20260508024334 50 0 0.0 0.0 0.00 0.00 0.00 8 1014.8
20260508023834 50 0 0.0 0.0 0.00 0.00 0.00 8 1014.7
20260508023334 50 0 0.0 0.0 0.00 0.00 0.00 8 1014.9
20260508022833 50 0 0.0 0.0 0.00 0.00 0.00 8 1014.9
20260508022333 50 0 0.0 0.0 0.00 0.00 0.00 8 1014.8
20260508021833 50 0 0.0 0.0 0.00 0.00 0.00 8 1014.9
20260508021332 50 0 0.0 0.0 0.00 0.00 0.00 8 1014.8
20260508020832 50 0 0.0 0.0 0.00 0.00 0.00 8 1014.8
20260508020332 50 0 0.0 0.0 0.00 0.00 0.00 8 1014.7
20260508015831 50 33 0.0 1.0 0.00 0.00 0.00 8 1014.8
20260508015331 50 13 0.0 1.0 0.00 0.00 0.00 8 1014.9
20260508014831 50 0 0.0 0.0 0.00 0.00 0.00 8 1014.6
20260508014330 50 0 0.0 0.0 0.00 0.00 0.00 8 1015.0
20260508013830 50 0 0.0 0.0 0.00 0.00 0.00 8 1014.9
20260508013330 50 326 0.0 1.0 0.00 0.00 0.00 8 1014.8
20260508012829 50 0 0.0 0.0 0.00 0.00 0.00 8 1014.8
20260508012329 50 346 0.0 1.0 0.00 0.00 0.00 8 1014.7
20260508011829 50 298 1.0 1.0 0.00 0.00 0.00 8 1014.6
20260508011328 50 21 0.0 1.0 0.00 0.00 0.00 8 1015.0
20260508010828 50 228 1.0 2.0 0.00 0.00 0.00 8 1014.7
20260508010328 51 0 0.0 0.0 0.00 0.00 0.00 8 1014.9
20260508005827 51 287 0.0 2.0 0.00 0.00 0.00 8 1014.7
20260508005327 51 0 0.0 0.0 0.00 0.00 0.00 8 1014.5
20260508004827 50 0 0.0 0.0 0.00 0.00 0.00 8 1014.7
20260508004326 51 0 0.0 0.0 0.00 0.00 0.00 8 1014.7
20260508003826 50 0 0.0 0.0 0.00 0.00 0.00 8 1015.0
20260508003326 51 0 0.0 0.0 0.00 0.00 0.00 8 1014.6
20260508002825 51 0 0.0 0.0 0.00 0.00 0.00 8 1014.6
20260508002325 51 0 0.0 0.0 0.00 0.00 0.00 8 1014.8
20260508001825 50 348 0.0 1.0 0.00 0.00 0.00 8 1014.7
20260508001324 51 0 0.0 0.0 0.00 0.00 0.00 8 1014.7
20260508000824 51 0 0.0 0.0 0.00 0.00 0.00 8 1014.5
20260508000324 51 0 0.0 0.0 0.00 0.00 0.00 8 1014.6
20260507235823 51 0 0.0 0.0 0.00 0.00 0.00 8 1014.7
20260507235323 51 14 0.0 1.0 0.00 0.00 0.00 8 1014.5
20260507234823 51 4 0.0 1.0 0.00 0.00 0.00 8 1014.7
20260507234322 51 0 0.0 0.0 0.00 0.00 0.00 8 1014.7
20260507233822 51 333 0.0 1.0 0.00 0.00 0.00 8 1014.6
20260507233322 51 0 0.0 0.0 0.00 0.00 0.00 8 1014.6
20260507232821 51 347 0.0 1.0 0.00 0.00 0.00 8 1014.6
20260507232321 51 0 0.0 0.0 0.00 0.00 0.00 8 1014.7
20260507231821 51 322 1.0 1.0 0.00 0.00 0.00 8 1014.8
20260507231320 51 0 0.0 0.0 0.00 0.00 0.00 8 1014.5
20260507230820 51 332 0.0 1.0 0.00 0.00 0.00 8 1014.8
20260507230320 52 340 0.0 1.0 0.00 0.00 0.00 8 1014.6
20260507225819 52 0 0.0 0.0 0.00 0.00 0.00 8 1014.7
20260507225319 52 344 0.0 1.0 0.00 0.00 0.00 8 1014.6
20260507224819 52 344 0.0 1.0 0.00 0.00 0.00 8 1014.6
20260507224318 52 0 0.0 0.0 0.00 0.00 0.00 8 1014.4
20260507223818 52 357 0.0 1.0 0.00 0.00 0.00 8 1014.4
20260507223318 52 0 0.0 0.0 0.00 0.00 0.00 8 1014.5
20260507222817 52 0 0.0 0.0 0.00 0.00 0.00 8 1014.2
20260507222317 52 353 0.0 1.0 0.00 0.00 0.00 8 1014.3
20260507221817 52 0 0.0 0.0 0.00 0.00 0.00 8 1014.4
20260507221316 52 53 0.0 1.0 0.00 0.00 0.00 8 1014.3
20260507220816 52 267 2.0 2.0 0.00 0.00 0.00 8 1013.9
20260507220316 52 9 0.0 1.0 0.00 0.00 0.00 8 1014.1
20260507215815 53 347 0.0 1.0 0.00 0.00 0.00 8 1014.0
20260507215315 53 0 0.0 0.0 0.00 0.00 0.00 8 1014.2
20260507214815 53 0 0.0 0.0 0.00 0.00 0.00 8 1013.9
20260507214314 53 338 0.0 1.0 0.00 0.00 0.00 8 1013.8
20260507213814 53 0 0.0 0.0 0.00 0.00 0.00 8 1013.7
20260507213314 52 355 0.0 1.0 0.00 0.00 0.00 8 1013.7
20260507212813 53 53 0.0 1.0 0.00 0.00 0.00 8 1013.7
20260507212313 53 0 0.0 0.0 0.00 0.00 0.00 8 1013.8
20260507211813 53 0 0.0 0.0 0.00 0.00 0.00 7 1014.0
20260507211312 53 0 0.0 0.0 0.00 0.00 0.00 7 1013.8
20260507210812 53 0 0.0 0.0 0.00 0.00 0.00 8 1013.8
20260507210312 53 334 0.0 1.0 0.00 0.00 0.00 8 1013.9
20260507205811 53 0 0.0 0.0 0.00 0.00 0.00 7 1013.7
20260507205311 53 24 0.0 1.0 0.00 0.00 0.00 7 1014.1
20260507204811 53 347 0.0 1.0 0.00 0.00 0.00 7 1013.7
20260507204310 53 0 0.0 0.0 0.00 0.00 0.00 7 1013.9
20260507203810 53 0 0.0 0.0 0.00 0.00 0.00 7 1013.6
20260507203310 53 0 0.0 0.0 0.00 0.00 0.00 8 1013.7
20260507202809 53 0 0.0 0.0 0.00 0.00 0.00 7 1013.9
20260507202309 54 0 0.0 0.0 0.00 0.00 0.00 7 1013.8
20260507201808 53 0 0.0 0.0 0.00 0.00 0.00 7 1013.8
20260507201308 54 0 0.0 0.0 0.00 0.00 0.00 7 1013.7
20260507200808 54 7 0.0 1.0 0.00 0.00 0.00 7 1013.7
20260507200308 54 21 0.0 1.0 0.00 0.00 0.00 7 1013.8
20260507195807 54 0 0.0 0.0 0.00 0.00 0.00 7 1013.5
20260507195307 54 0 0.0 0.0 0.00 0.00 0.00 7 1013.7
20260507194807 54 357 0.0 1.0 0.00 0.00 0.00 7 1013.7
20260507194306 54 0 0.0 0.0 0.00 0.00 0.00 7 1013.9
20260507193806 54 0 0.0 0.0 0.00 0.00 0.00 7 1013.7
20260507193306 54 0 0.0 0.0 0.00 0.00 0.00 7 1013.9
20260507192805 54 0 0.0 0.0 0.00 0.00 0.00 7 1013.8
20260507192306 54 353 0.0 1.0 0.00 0.00 0.00 7 1013.2
20260507191805 54 1 0.0 1.0 0.00 0.00 0.00 7 1013.4
20260507191304 54 0 0.0 0.0 0.00 0.00 0.00 7 1013.3
20260507190804 54 0 0.0 0.0 0.00 0.00 0.00 7 1013.5
20260507190304 54 0 0.0 0.0 0.00 0.00 0.00 7 1013.1